sat.trackr.live / text

‹ back to catalog

TIANTONG-1 2

NORAD 46916 · 2020-082A

PAYLOAD ACTIVE UNKNOWN

§ Identity

Operator
Country
PRC
Launch date
2020-11-12
Launch site
XICLF
Launch vehicle
Mass (kg)
RCS (m²)

Purposes: comms

External: N2YO · Heavens-Above · Gunter

§ Orbital elements

Epoch: 2026-05-25T00:54:58.371840Z

Period
1,436.13 min
Inclination
0.8208°
Eccentricity
0.0001637
Mean motion
1.00269685 rev/d
Perigee alt
35,780.3 km
Apogee alt
35,794.1 km
Semi-major
42,165.3 km
B*
0.0000e+0
RAAN
324.4036°
Arg perigee
89.5014°
Mean anomaly
327.4192°
Rev number
2,042

§ Raw data

TIANTONG-1 21 46916U 20082A   26145.03817560 -.00000359  00000+0  00000+0 0  99922 46916   0.8208 324.4036 0001637  89.5014 327.4192  1.00269685 20425

JSON: /api/v1/satellites/46916 · /tle

For live sub-satellite position, see the globe view (requires WebGL).

§ Visibility from observer

Set your observer location to see the next 7 days of passes ≥ 10°. The values pass through the URL so the page stays shareable.

No JS? Fill the form by hand. The geolocation button needs JavaScript.